This is the latest recevied weather packets stored in our database for station/object KK4WXG. If no packets are shown the sender has not sent any weather packets the latest 10 day(s).
| Time | Temp. | Humidity | Pressure | Rain* | Wind** | Luminosity | Snow |
|---|---|---|---|---|---|---|---|
| 1777528415 | 12.22° C | 99% | 1006.8 hPa | 0 mm | - | 0 W/m² | - |
| 1777528113 | 11.67° C | 99% | 1006.8 hPa | 0 mm | - | 0 W/m² | - |
| 1777527810 | 11.67° C | 98% | 1006.7 hPa | 0 mm | - | 0 W/m² | - |
| 1777527506 | 11.67° C | 98% | 1006.7 hPa | 0 mm | - | 0 W/m² | - |
| 1777527201 | 12.22° C | 98% | 1006.8 hPa | 0.51 mm | - | 0 W/m² | - |
| 1777526898 | 12.22° C | 99% | 1006.6 hPa | 0.51 mm | - | 0 W/m² | - |
| 1777526593 | 12.22° C | 99% | 1006.8 hPa | 0 mm | - | 0 W/m² | - |
| 1777526293 | 12.22° C | 99% | 1006.9 hPa | 0 mm | - | 0 W/m² | - |
| 1777525989 | 12.22° C | 98% | 1007 hPa | 0 mm | - | 0 W/m² | - |
| 1777525686 | 12.22° C | 98% | 1006.8 hPa | 0 mm | - | 0 W/m² | - |
| 1777525384 | 12.22° C | 98% | 1006.9 hPa | 0 mm | - | 0 W/m² | - |
| 1777525079 | 12.78° C | 98% | 1006.8 hPa | 0 mm | - | 0 W/m² | - |
| 1777524776 | 12.78° C | 98% | 1006.7 hPa | 0 mm | - | 0 W/m² | - |
| 1777524474 | 12.78° C | 99% | 1006.7 hPa | 0 mm | - | 0 W/m² | - |
| 1777524171 | 12.22° C | 98% | 1006.9 hPa | 0 mm | - | 0 W/m² | - |
| 1777523867 | 12.22° C | 98% | 1006.8 hPa | 0 mm | - | 0 W/m² | - |
| 1777523564 | 12.22° C | 98% | 1006.8 hPa | 0 mm | - | 0 W/m² | - |
| 1777523260 | 12.22° C | 98% | 1006.8 hPa | 0 mm | - | 0 W/m² | - |
| 1777522955 | 12.22° C | 98% | 1006.9 hPa | 0 mm | - | 0 W/m² | - |
| 1777522653 | 13.33° C | 98% | 1006.7 hPa | 0 mm | - | 0 W/m² | - |
| 1777522350 | 13.33° C | 98% | 1006.7 hPa | 0 mm | - | 0 W/m² | - |
| 1777522046 | 13.33° C | 98% | 1006.5 hPa | 0 mm | - | 0 W/m² | - |
| 1777521743 | 13.33° C | 98% | 1006.6 hPa | 0 mm | - | 0 W/m² | - |
| 1777521440 | 13.33° C | 98% | 1006.8 hPa | 0 mm | - | 0 W/m² | - |
| 1777521137 | 13.33° C | 98% | 1006.9 hPa | 0 mm | - | 0 W/m² | - |
* Rain latest hour (hover to see other rain measurements)
** Current wind speed in m/s (hover to see current wind gust speed)